User: anonymous   Login
Location: Unspecified
(0.0000°N, 0.0000°E)
Time: 23:32:45
(UTC+00:00)
Language:

CubeL - Orbit

View from above orbital plane
View from above orbital plane
View from above satellite
View from above satellite

Ground track
Ground track

The orbit is defined by the following mean orbital elements,

1 47448U          26145.56250056 +.00000000 +00000-0 +19942-3 0 00005
2 47448  97.2352 196.3696 0004980 245.6661 114.4066 15.40595955    08
Epoch (UTC): 25 May 2026 13:30:00
Eccentricity: 0.0004980
inclination: 97.2352°
perigee height: 441 km
apogee height: 448 km
right ascension of ascending node: 196.3696°
argument of perigee: 245.6661°
revolutions per day: 15.40595955
mean anomaly at epoch: 114.4066°

The dashed part of the orbit path shows where the satellite is in the earth's shadow,  

DLR